| time (UTC) | temp F | wind direction | speed MPH | gust MPH | rain 1hr in | rain 24hr in | rain mn in | humidity % | barometer mb |
| 20260505211541 | 0 | 166 | 4.0 | 6.0 | 0.00 | 0.00 | 0.00 | 999.7 | |
| 20260505211037 | 0 | 142 | 3.0 | 5.0 | 0.00 | 0.00 | 0.00 | 999.8 | |
| 20260505210534 | 0 | 140 | 4.0 | 7.0 | 0.00 | 0.00 | 0.00 | 999.8 | |
| 20260505210031 | 0 | 142 | 5.0 | 6.0 | 0.00 | 0.00 | 0.00 | 1000.0 | |
| 20260505205529 | 0 | 127 | 4.0 | 6.0 | 0.00 | 0.00 | 0.00 | 1000.3 | |
| 20260505205026 | 0 | 113 | 2.0 | 5.0 | 0.00 | 0.00 | 0.00 | 1000.1 | |
| 20260505204518 | 0 | 115 | 7.0 | 7.0 | 0.00 | 0.00 | 0.00 | 1000.0 | |
| 20260505204015 | 0 | 110 | 5.0 | 5.0 | 0.00 | 0.00 | 0.00 | 1000.0 | |
| 20260505203511 | 0 | 125 | 5.0 | 6.0 | 0.00 | 0.00 | 0.00 | 1000.1 | |
| 20260505203008 | 0 | 120 | 5.0 | 7.0 | 0.00 | 0.00 | 0.00 | 1000.0 | |
| 20260505202504 | 0 | 95 | 6.0 | 7.0 | 0.00 | 0.00 | 0.00 | 1000.0 | |
| 20260505202000 | 0 | 73 | 1.0 | 5.0 | 0.00 | 0.00 | 0.00 | 1000.2 | |
| 20260505201458 | 0 | 90 | 2.0 | 4.0 | 0.00 | 0.00 | 0.00 | 1000.3 | |
| 20260505200955 | 0 | 336 | 2.0 | 4.0 | 0.00 | 0.00 | 0.00 | 1000.1 | |
| 20260505200453 | 0 | 343 | 3.0 | 3.0 | 0.00 | 0.00 | 0.00 | 1000.2 | |
| 20260505195948 | 0 | 294 | 3.0 | 5.0 | 0.00 | 0.00 | 0.00 | 1000.1 | |
| 20260505195446 | 0 | 82 | 2.0 | 3.0 | 0.00 | 0.00 | 0.00 | 1000.3 | |
| 20260505194943 | 0 | 147 | 2.0 | 5.0 | 0.00 | 0.00 | 0.00 | 1000.2 | |
| 20260505194440 | 0 | 71 | 3.0 | 3.0 | 0.00 | 0.00 | 0.00 | 1000.1 | |
| 20260505193940 | 0 | 79 | 2.0 | 5.0 | 0.00 | 0.00 | 0.00 | 1000.1 | |
| 20260505193438 | 0 | 99 | 4.0 | 6.0 | 0.00 | 0.00 | 0.00 | 1000.2 | |
| 20260505192936 | 0 | 124 | 4.0 | 7.0 | 0.00 | 0.00 | 0.00 | 1000.3 | |
| 20260505192434 | 0 | 161 | 5.0 | 5.0 | 0.00 | 0.00 | 0.00 | 1000.4 | |
| 20260505191931 | 0 | 114 | 3.0 | 7.0 | 0.00 | 0.00 | 0.00 | 1000.4 | |
| 20260505191430 | 0 | 96 | 4.0 | 6.0 | 0.00 | 0.00 | 0.00 | 1000.3 | |
| 20260505190926 | 0 | 73 | 3.0 | 6.0 | 0.00 | 0.00 | 0.00 | 1000.2 | |
| 20260505190421 | 0 | 114 | 1.0 | 4.0 | 0.00 | 0.00 | 0.00 | 1000.3 | |
| 20260505185917 | 0 | 125 | 2.0 | 6.0 | 0.00 | 0.00 | 0.00 | 1000.3 | |
| 20260505185414 | 0 | 150 | 3.0 | 6.0 | 0.00 | 0.00 | 0.00 | 1000.0 | |
| 20260505184910 | 0 | 174 | 1.0 | 7.0 | 0.00 | 0.00 | 0.00 | 1000.2 | |
| 20260505184407 | 0 | 126 | 5.0 | 5.0 | 0.00 | 0.00 | 0.00 | 1000.3 | |
| 20260505183904 | 0 | 122 | 4.0 | 5.0 | 0.00 | 0.00 | 0.00 | 1000.3 | |
| 20260505183401 | 0 | 138 | 5.0 | 6.0 | 0.00 | 0.00 | 0.00 | 1000.1 | |
| 20260505182858 | 0 | 165 | 2.0 | 3.0 | 0.00 | 0.00 | 0.00 | 1000.0 | |
| 20260505182355 | 0 | 67 | 3.0 | 4.0 | 0.00 | 0.00 | 0.00 | 1000.1 | |
| 20260505181851 | 0 | 335 | 0.0 | 3.0 | 0.00 | 0.00 | 0.00 | 1000.1 | |
| 20260505181348 | 0 | 83 | 1.0 | 3.0 | 0.00 | 0.00 | 0.00 | 1000.2 | |
| 20260505180845 | 0 | 180 | 0.0 | 4.0 | 0.00 | 0.00 | 0.00 | 1000.2 | |
| 20260505180341 | 0 | 0 | 0.0 | 3.0 | 0.00 | 0.00 | 0.00 | 1000.2 | |
| 20260505175838 | 0 | 346 | 1.0 | 3.0 | 0.00 | 0.00 | 0.00 | 1000.0 | |
| 20260505175334 | 0 | 334 | 0.0 | 3.0 | 0.00 | 0.00 | 0.00 | 999.9 | |
| 20260505174831 | 0 | 45 | 2.0 | 5.0 | 0.00 | 0.00 | 0.00 | 1000.1 | |
| 20260505174329 | 0 | 105 | 2.0 | 6.0 | 0.00 | 0.00 | 0.00 | 999.9 | |
| 20260505173824 | 0 | 74 | 2.0 | 5.0 | 0.00 | 0.00 | 0.00 | 999.7 | |
| 20260505173321 | 0 | 66 | 4.0 | 5.0 | 0.00 | 0.00 | 0.00 | 999.9 | |
| 20260505172818 | 0 | 297 | 0.0 | 2.0 | 0.00 | 0.00 | 0.00 | 999.9 | |
| 20260505172315 | 0 | 29 | 0.0 | 3.0 | 0.00 | 0.00 | 0.00 | 999.7 | |
| 20260505171810 | 0 | 109 | 1.0 | 4.0 | 0.00 | 0.00 | 0.00 | 999.8 | |
| 20260505171307 | 0 | 123 | 1.0 | 5.0 | 0.00 | 0.00 | 0.00 | 1000.1 | |
| 20260505170803 | 0 | 106 | 3.0 | 5.0 | 0.00 | 0.00 | 0.00 | 1000.0 | |
| 20260505170300 | 0 | 143 | 2.0 | 5.0 | 0.00 | 0.00 | 0.00 | 999.8 | |
| 20260505165755 | 0 | 105 | 5.0 | 7.0 | 0.00 | 0.00 | 0.00 | 999.5 | |
| 20260505165252 | 0 | 103 | 5.0 | 5.0 | 0.00 | 0.00 | 0.00 | 999.8 | |
| 20260505164747 | 0 | 120 | 1.0 | 6.0 | 0.00 | 0.00 | 0.00 | 999.9 | |
| 20260505164245 | 0 | 162 | 4.0 | 5.0 | 0.00 | 0.00 | 0.00 | 999.9 | |
| 20260505163743 | 0 | 121 | 2.0 | 4.0 | 0.00 | 0.00 | 0.00 | 999.9 | |
| 20260505163241 | 0 | 41 | 2.0 | 4.0 | 0.00 | 0.00 | 0.00 | 1000.0 | |
| 20260505162739 | 0 | 141 | 3.0 | 7.0 | 0.00 | 0.00 | 0.00 | 999.8 | |
| 20260505162235 | 0 | 120 | 4.0 | 5.0 | 0.00 | 0.00 | 0.00 | 999.8 | |
| 20260505161732 | 0 | 80 | 3.0 | 5.0 | 0.00 | 0.00 | 0.00 | 999.9 | |
| 20260505161230 | 0 | 128 | 3.0 | 6.0 | 0.00 | 0.00 | 0.00 | 1000.0 | |
| 20260505160727 | 0 | 152 | 3.0 | 3.0 | 0.00 | 0.00 | 0.00 | 999.8 | |
| 20260505160225 | 0 | 119 | 3.0 | 5.0 | 0.00 | 0.00 | 0.00 | 999.9 | |
| 20260505153203 | 0 | 98 | 5.0 | 6.0 | 0.00 | 0.00 | 0.00 | 999.9 | |
| 20260505152700 | 0 | 135 | 6.0 | 6.0 | 0.00 | 0.00 | 0.00 | 999.8 | |
| 20260505152156 | 0 | 123 | 5.0 | 6.0 | 0.00 | 0.00 | 0.00 | 999.8 | |
| 20260505151651 | 0 | 132 | 2.0 | 3.0 | 0.00 | 0.00 | 0.00 | 999.8 | |
| 20260505151149 | 0 | 106 | 4.0 | 5.0 | 0.00 | 0.00 | 0.00 | 999.8 | |
| 20260505150645 | 0 | 124 | 3.0 | 5.0 | 0.00 | 0.00 | 0.00 | 999.9 | |
| 20260505150142 | 0 | 127 | 2.0 | 4.0 | 0.00 | 0.00 | 0.00 | 999.7 | |
| 20260505140611 | 0 | 135 | 3.0 | 3.0 | 0.00 | 0.00 | 0.00 | 999.6 | |
| 20260505140108 | 0 | 126 | 3.0 | 4.0 | 0.00 | 0.00 | 0.00 | 999.3 | |
| 20260505125024 | 0 | 203 | 0.0 | 2.0 | 0.00 | 0.00 | 0.00 | 998.8 | |
| 20260505124521 | 0 | 277 | 0.0 | 3.0 | 0.00 | 0.00 | 0.00 | 998.8 | |
| 20260505124017 | 0 | 251 | 0.0 | 2.0 | 0.00 | 0.00 | 0.00 | 998.8 | |
| 20260505123514 | 0 | 240 | 2.0 | 2.0 | 0.00 | 0.00 | 0.00 | 998.7 | |
| 20260505123010 | 0 | 229 | 1.0 | 2.0 | 0.00 | 0.00 | 0.00 | 998.7 | |
| 20260505122507 | 0 | 166 | 0.0 | 1.0 | 0.00 | 0.00 | 0.00 | 998.7 | |
| 20260505122004 | 0 | 180 | 0.0 | 2.0 | 0.00 | 0.00 | 0.00 | 998.7 | |
| 20260505121501 | 0 | 198 | 1.0 | 5.0 | 0.00 | 0.00 | 0.00 | 998.7 | |
| 20260505120957 | 0 | 258 | 3.0 | 5.0 | 0.00 | 0.00 | 0.00 | 998.6 | |
| 20260505120453 | 0 | 306 | 3.0 | 6.0 | 0.00 | 0.00 | 0.00 | 998.5 | |
| 20260505115952 | 0 | 209 | 3.0 | 6.0 | 0.00 | 0.00 | 0.00 | 998.7 | |
| 20260505115449 | 0 | 264 | 4.0 | 4.0 | 0.00 | 0.00 | 0.00 | 998.8 | |
| 20260505114947 | 0 | 233 | 3.0 | 5.0 | 0.00 | 0.00 | 0.00 | 998.7 | |
| 20260505114443 | 0 | 247 | 4.0 | 5.0 | 0.00 | 0.00 | 0.00 | 998.8 | |
| 20260505113940 | 0 | 252 | 3.0 | 7.0 | 0.00 | 0.00 | 0.00 | 998.6 | |
| 20260505113436 | 0 | 307 | 4.0 | 6.0 | 0.00 | 0.00 | 0.00 | 998.6 | |
| 20260505112932 | 0 | 315 | 4.0 | 5.0 | 0.00 | 0.00 | 0.00 | 998.6 | |
| 20260505112430 | 0 | 255 | 3.0 | 5.0 | 0.00 | 0.00 | 0.00 | 998.8 | |
| 20260505111926 | 0 | 237 | 3.0 | 6.0 | 0.00 | 0.00 | 0.00 | 998.6 | |
| 20260505111420 | 0 | 266 | 5.0 | 9.0 | 0.00 | 0.00 | 0.00 | 998.7 | |
| 20260505110917 | 0 | 280 | 6.0 | 8.0 | 0.00 | 0.00 | 0.00 | 998.6 | |
| 20260505110414 | 0 | 263 | 6.0 | 7.0 | 0.00 | 0.00 | 0.00 | 998.6 | |
| 20260505101845 | 0 | 258 | 2.0 | 3.0 | 0.00 | 0.00 | 0.00 | 998.6 | |
| 20260505101339 | 0 | 243 | 4.0 | 4.0 | 0.00 | 0.00 | 0.00 | 998.4 | |
| 20260505100836 | 0 | 328 | 2.0 | 4.0 | 0.00 | 0.00 | 0.00 | 998.3 | |
| 20260505100333 | 0 | 319 | 2.0 | 4.0 | 0.00 | 0.00 | 0.00 | 998.3 | |
| 20260505095828 | 0 | 270 | 1.0 | 3.0 | 0.00 | 0.00 | 0.00 | 998.2 | |
| 20260505095326 | 0 | 264 | 0.0 | 3.0 | 0.00 | 0.00 | 0.00 | 998.4 | |
| 20260505094822 | 0 | 75 | 0.0 | 1.0 | 0.00 | 0.00 | 0.00 | 998.2 | |
| 20260505094319 | 0 | 246 | 3.0 | 3.0 | 0.00 | 0.00 | 0.00 | 998.4 | |
| 20260505093814 | 0 | 246 | 0.0 | 1.0 | 0.00 | 0.00 | 0.00 | 998.2 | |
| 20260505093312 | 0 | 246 | 0.0 | 1.0 | 0.00 | 0.00 | 0.00 | 998.3 | |
| 20260505092808 | 0 | 234 | 0.0 | 2.0 | 0.00 | 0.00 | 0.00 | 998.3 | |
| 20260505092308 | 0 | 254 | 0.0 | 2.0 | 0.00 | 0.00 | 0.00 | 998.2 | |
| 20260505091804 | 0 | 209 | 2.0 | 3.0 | 0.00 | 0.00 | 0.00 | 998.3 | |
| 20260505091302 | 0 | 270 | 0.0 | 3.0 | 0.00 | 0.00 | 0.00 | 998.2 | |
| 20260505090800 | 0 | 241 | 2.0 | 3.0 | 0.00 | 0.00 | 0.00 | 998.4 | |
| 20260505090258 | 0 | 221 | 2.0 | 2.0 | 0.00 | 0.00 | 0.00 | 998.0 | |
| 20260505085755 | 0 | 173 | 0.0 | 0.0 | 0.00 | 0.00 | 0.00 | 998.2 | |
| 20260505085253 | 0 | 147 | 0.0 | 2.0 | 0.00 | 0.00 | 0.00 | 998.2 | |
| 20260505084750 | 0 | 160 | 0.0 | 2.0 | 0.00 | 0.00 | 0.00 | 998.1 | |
| 20260505084249 | 0 | 140 | 1.0 | 2.0 | 0.00 | 0.00 | 0.00 | 998.1 | |
| 20260505083746 | 0 | 14 | 0.0 | 0.0 | 0.00 | 0.00 | 0.00 | 998.2 | |
| 20260505083242 | 0 | 215 | 0.0 | 0.0 | 0.00 | 0.00 | 0.00 | 998.1 | |
| 20260505082739 | 0 | 258 | 2.0 | 2.0 | 0.00 | 0.00 | 0.00 | 998.1 | |
| 20260505082236 | 0 | 246 | 0.0 | 1.0 | 0.00 | 0.00 | 0.00 | 998.0 | |
| 20260505081732 | 0 | 234 | 0.0 | 2.0 | 0.00 | 0.00 | 0.00 | 998.1 | |
| 20260505081229 | 0 | 255 | 0.0 | 2.0 | 0.00 | 0.00 | 0.00 | 998.2 | |
| 20260505080726 | 0 | 348 | 0.0 | 3.0 | 0.00 | 0.00 | 0.00 | 998.1 | |
| 20260505080221 | 0 | 203 | 0.0 | 1.0 | 0.00 | 0.00 | 0.00 | 998.2 | |
| 20260505075717 | 0 | 232 | 2.0 | 3.0 | 0.00 | 0.00 | 0.00 | 998.2 | |
| 20260505075215 | 0 | 250 | 2.0 | 2.0 | 0.00 | 0.00 | 0.00 | 997.9 | |
| 20260505074712 | 0 | 270 | 0.0 | 2.0 | 0.00 | 0.00 | 0.00 | 998.1 | |
| 20260505074209 | 0 | 255 | 2.0 | 3.0 | 0.00 | 0.00 | 0.00 | 998.1 | |
| 20260505073707 | 0 | 292 | 2.0 | 3.0 | 0.00 | 0.00 | 0.00 | 998.1 | |
| 20260505073205 | 0 | 294 | 0.0 | 2.0 | 0.00 | 0.00 | 0.00 | 998.1 | |
| 20260505072700 | 0 | 243 | 2.0 | 4.0 | 0.00 | 0.00 | 0.00 | 998.0 | |
| 20260505072156 | 0 | 270 | 2.0 | 4.0 | 0.00 | 0.00 | 0.00 | 998.0 | |
| 20260505071652 | 0 | 295 | 2.0 | 3.0 | 0.00 | 0.00 | 0.00 | 997.9 | |
| 20260505071150 | 0 | 293 | 3.0 | 3.0 | 0.00 | 0.00 | 0.00 | 998.1 | |
| 20260505070647 | 0 | 243 | 2.0 | 4.0 | 0.00 | 0.00 | 0.00 | 998.1 | |
| 20260505070143 | 0 | 242 | 4.0 | 4.0 | 0.00 | 0.00 | 0.00 | 997.9 | |
| 20260505065639 | 0 | 270 | 2.0 | 3.0 | 0.00 | 0.00 | 0.00 | 998.0 | |
| 20260505065136 | 0 | 180 | 0.0 | 1.0 | 0.00 | 0.00 | 0.00 | 997.8 | |
| 20260505064633 | 0 | 278 | 0.0 | 3.0 | 0.00 | 0.00 | 0.00 | 998.0 | |
| 20260505064131 | 0 | 285 | 3.0 | 6.0 | 0.00 | 0.00 | 0.00 | 997.8 | |
| 20260505063628 | 0 | 276 | 3.0 | 5.0 | 0.00 | 0.00 | 0.00 | 997.7 | |
| 20260505063124 | 0 | 248 | 2.0 | 5.0 | 0.00 | 0.00 | 0.00 | 997.8 | |
| 20260505062621 | 0 | 246 | 3.0 | 5.0 | 0.00 | 0.00 | 0.00 | 997.7 | |
| 20260505062118 | 0 | 244 | 3.0 | 5.0 | 0.00 | 0.00 | 0.00 | 997.9 | |
| 20260505061615 | 0 | 290 | 3.0 | 5.0 | 0.00 | 0.00 | 0.00 | 998.0 | |
| 20260505061113 | 0 | 270 | 3.0 | 6.0 | 0.00 | 0.00 | 0.00 | 998.0 | |
| 20260505060611 | 0 | 241 | 4.0 | 6.0 | 0.00 | 0.00 | 0.00 | 997.9 | |
| 20260505060107 | 0 | 250 | 6.0 | 6.0 | 0.00 | 0.00 | 0.00 | 997.9 | |
| 20260505055602 | 0 | 252 | 4.0 | 7.0 | 0.00 | 0.00 | 0.00 | 997.8 | |
| 20260505055059 | 0 | 283 | 1.0 | 7.0 | 0.00 | 0.00 | 0.00 | 997.7 | |
| 20260505054556 | 0 | 221 | 2.0 | 5.0 | 0.00 | 0.00 | 0.00 | 997.7 | |
| 20260505054055 | 0 | 279 | 0.0 | 5.0 | 0.00 | 0.00 | 0.00 | 997.5 | |
| 20260505053551 | 0 | 243 | 2.0 | 4.0 | 0.00 | 0.00 | 0.00 | 997.7 | |
| 20260505053048 | 0 | 225 | 0.0 | 4.0 | 0.00 | 0.00 | 0.00 | 997.6 | |
| 20260505052545 | 0 | 339 | 2.0 | 4.0 | 0.00 | 0.00 | 0.00 | 997.8 | |
| 20260505052043 | 0 | 270 | 0.0 | 1.0 | 0.00 | 0.00 | 0.00 | 997.5 | |
| 20260505051539 | 0 | 166 | 2.0 | 3.0 | 0.00 | 0.00 | 0.00 | 997.6 | |
| 20260505051038 | 0 | 180 | 2.0 | 4.0 | 0.00 | 0.00 | 0.00 | 997.7 | |
| 20260505050535 | 0 | 180 | 1.0 | 5.0 | 0.00 | 0.00 | 0.00 | 997.5 | |
| 20260505041503 | 0 | 311 | 1.0 | 3.0 | 0.00 | 0.00 | 0.00 | 996.7 | |
| 20260505041001 | 0 | 319 | 2.0 | 3.0 | 0.00 | 0.00 | 0.00 | 996.9 | |
| 20260505040458 | 0 | 279 | 2.0 | 4.0 | 0.00 | 0.00 | 0.00 | 996.7 | |
| 20260505035954 | 0 | 264 | 3.0 | 3.0 | 0.00 | 0.00 | 0.00 | 996.5 | |
| 20260505035450 | 0 | 117 | 1.0 | 1.0 | 0.00 | 0.00 | 0.00 | 996.5 | |
| 20260505034948 | 0 | 253 | 0.0 | 4.0 | 0.00 | 0.00 | 0.00 | 996.4 | |
| 20260505034444 | 0 | 212 | 2.0 | 4.0 | 0.00 | 0.00 | 0.00 | 996.2 | |
| 20260505033941 | 0 | 265 | 2.0 | 5.0 | 0.00 | 0.00 | 0.00 | 996.2 | |
| 20260505033438 | 0 | 252 | 5.0 | 6.0 | 0.00 | 0.00 | 0.00 | 996.0 | |
| 20260505032936 | 0 | 114 | 1.0 | 2.0 | 0.00 | 0.00 | 0.00 | 996.0 | |
| 20260505032433 | 0 | 109 | 2.0 | 3.0 | 0.00 | 0.00 | 0.00 | 996.1 | |
| 20260505031929 | 0 | 198 | 0.0 | 2.0 | 0.00 | 0.00 | 0.00 | 996.0 | |
| 20260505031427 | 0 | 180 | 0.0 | 3.0 | 0.00 | 0.00 | 0.00 | 995.9 | |
| 20260505030923 | 0 | 212 | 2.0 | 2.0 | 0.00 | 0.00 | 0.00 | 995.8 | |
| 20260505030419 | 0 | 174 | 1.0 | 2.0 | 0.00 | 0.00 | 0.00 | 995.6 | |
| 20260505025915 | 0 | 255 | 2.0 | 5.0 | 0.00 | 0.00 | 0.00 | 995.5 | |
| 20260505025412 | 0 | 236 | 3.0 | 7.0 | 0.00 | 0.00 | 0.00 | 995.5 | |
| 20260505024911 | 0 | 262 | 2.0 | 5.0 | 0.00 | 0.00 | 0.00 | 995.4 | |
| 20260505024408 | 0 | 272 | 5.0 | 7.0 | 0.00 | 0.00 | 0.00 | 995.4 | |
| 20260505023905 | 0 | 273 | 3.0 | 5.0 | 0.00 | 0.00 | 0.00 | 995.2 | |
| 20260505023402 | 0 | 228 | 6.0 | 8.0 | 0.00 | 0.00 | 0.00 | 995.2 | |
| 20260505022859 | 0 | 300 | 0.0 | 6.0 | 0.00 | 0.00 | 0.00 | 995.2 | |
| 20260505022356 | 0 | 277 | 2.0 | 9.0 | 0.00 | 0.00 | 0.00 | 995.3 | |
| 20260505021854 | 0 | 259 | 3.0 | 7.0 | 0.00 | 0.00 | 0.00 | 995.1 | |
| 20260505021350 | 0 | 278 | 5.0 | 9.0 | 0.00 | 0.00 | 0.00 | 995.0 | |
| 20260505020846 | 0 | 254 | 4.0 | 8.0 | 0.00 | 0.00 | 0.00 | 994.9 | |
| 20260505020341 | 0 | 282 | 6.0 | 7.0 | 0.00 | 0.00 | 0.00 | 994.9 | |
| 20260505015839 | 0 | 240 | 5.0 | 9.0 | 0.00 | 0.00 | 0.00 | 995.2 | |
| 20260505015336 | 0 | 242 | 6.0 | 9.0 | 0.00 | 0.00 | 0.00 | 995.0 | |
| 20260505014833 | 0 | 250 | 3.0 | 9.0 | 0.00 | 0.00 | 0.00 | 995.1 | |
| 20260505014330 | 0 | 281 | 9.0 | 9.0 | 0.00 | 0.00 | 0.00 | 994.9 | |
| 20260505013826 | 0 | 260 | 4.0 | 12.0 | 0.00 | 0.00 | 0.00 | 995.2 | |
| 20260505013324 | 0 | 249 | 5.0 | 9.0 | 0.00 | 0.00 | 0.00 | 995.3 | |
| 20260505012822 | 0 | 270 | 4.0 | 7.0 | 0.00 | 0.00 | 0.00 | 995.2 | |
| 20260505012320 | 0 | 265 | 4.0 | 7.0 | 0.00 | 0.00 | 0.00 | 995.3 | |
| 20260505011815 | 0 | 245 | 5.0 | 13.0 | 0.00 | 0.00 | 0.00 | 995.3 | |
| 20260505011312 | 0 | 252 | 4.0 | 11.0 | 0.00 | 0.00 | 0.00 | 995.2 | |
| 20260505010808 | 0 | 272 | 5.0 | 13.0 | 0.00 | 0.00 | 0.00 | 995.1 | |
| 20260505010304 | 0 | 291 | 3.0 | 11.0 | 0.00 | 0.00 | 0.00 | 995.3 | |
| 20260505005801 | 0 | 278 | 5.0 | 14.0 | 0.00 | 0.00 | 0.00 | 995.1 | |
| 20260505005258 | 0 | 272 | 6.0 | 16.0 | 0.00 | 0.00 | 0.00 | 995.2 | |
| 20260505004755 | 0 | 244 | 12.0 | 15.0 | 0.00 | 0.00 | 0.00 | 995.1 | |
| 20260505004251 | 0 | 255 | 9.0 | 14.0 | 0.00 | 0.00 | 0.00 | 995.3 | |
| 20260505003749 | 0 | 274 | 4.0 | 12.0 | 0.00 | 0.00 | 0.00 | 995.2 | |
| 20260505003246 | 0 | 263 | 11.0 | 12.0 | 0.00 | 0.00 | 0.00 | 995.1 | |
| 20260505002742 | 0 | 250 | 11.0 | 15.0 | 0.00 | 0.00 | 0.00 | 995.2 | |
| 20260505002240 | 0 | 246 | 9.0 | 15.0 | 0.00 | 0.00 | 0.00 | 995.3 | |
| 20260505001737 | 0 | 256 | 10.0 | 15.0 | 0.00 | 0.00 | 0.00 | 995.3 | |
| 20260505001235 | 0 | 284 | 9.0 | 12.0 | 0.00 | 0.00 | 0.00 | 995.2 | |
| 20260505000731 | 0 | 254 | 6.0 | 14.0 | 0.00 | 0.00 | 0.00 | 995.2 | |
| 20260505000229 | 0 | 266 | 8.0 | 12.0 | 0.00 | 0.00 | 0.00 | 995.3 | |
| 20260504235725 | 0 | 263 | 6.0 | 9.0 | 0.00 | 0.00 | 0.00 | 995.3 | |
| 20260504235222 | 0 | 272 | 5.0 | 7.0 | 0.00 | 0.00 | 0.00 | 995.3 | |
| 20260504234719 | 0 | 283 | 5.0 | 11.0 | 0.00 | 0.00 | 0.00 | 995.3 | |
| 20260504234216 | 0 | 265 | 2.0 | 8.0 | 0.00 | 0.00 | 0.00 | 995.1 | |
| 20260504233712 | 0 | 299 | 2.0 | 9.0 | 0.00 | 0.00 | 0.00 | 995.3 | |
| 20260504233208 | 0 | 324 | 2.0 | 7.0 | 0.00 | 0.00 | 0.00 | 995.4 | |
| 20260504232706 | 0 | 270 | 0.0 | 4.0 | 0.00 | 0.00 | 0.00 | 995.6 | |
| 20260504232203 | 0 | 0 | 0.0 | 3.0 | 0.00 | 0.00 | 0.00 | 995.4 | |
| 20260504231659 | 0 | 284 | 3.0 | 8.0 | 0.00 | 0.00 | 0.00 | 995.4 | |
| 20260504231155 | 0 | 335 | 3.0 | 6.0 | 0.00 | 0.00 | 0.00 | 995.5 | |
| 20260504230652 | 0 | 90 | 2.0 | 5.0 | 0.00 | 0.00 | 0.00 | 995.6 | |
| 20260504230151 | 0 | 86 | 3.0 | 5.0 | 0.00 | 0.00 | 0.00 | 995.6 | |
| 20260504225649 | 0 | 133 | 3.0 | 4.0 | 0.00 | 0.00 | 0.00 | 995.8 | |
| 20260504225144 | 0 | 173 | 2.0 | 9.0 | 0.00 | 0.00 | 0.00 | 995.7 | |
| 20260504224642 | 0 | 202 | 2.0 | 6.0 | 0.00 | 0.00 | 0.00 | 995.9 | |
| 20260504224138 | 0 | 103 | 3.0 | 6.0 | 0.00 | 0.00 | 0.00 | 995.8 | |
| 20260504223636 | 0 | 86 | 3.0 | 7.0 | 0.00 | 0.00 | 0.00 | 996.1 | |
| 20260504223131 | 0 | 154 | 3.0 | 5.0 | 0.00 | 0.00 | 0.00 | 996.0 | |
| 20260504222628 | 0 | 267 | 3.0 | 4.0 | 0.00 | 0.00 | 0.00 | 996.2 | |
| 20260504222125 | 0 | 55 | 2.0 | 3.0 | 0.00 | 0.00 | 0.00 | 996.3 | |
| 20260504221623 | 0 | 63 | 1.0 | 4.0 | 0.00 | 0.00 | 0.00 | 996.1 | |
| 20260504221120 | 0 | 308 | 4.0 | 5.0 | 0.00 | 0.00 | 0.00 | 996.2 | |
| 20260504220616 | 0 | 303 | 5.0 | 8.0 | 0.00 | 0.00 | 0.00 | 996.5 | |
| 20260504220114 | 0 | 262 | 5.0 | 5.0 | 0.00 | 0.00 | 0.00 | 996.3 | |
| 20260504215609 | 0 | 142 | 6.0 | 9.0 | 0.00 | 0.00 | 0.00 | 996.6 | |
| 20260504215107 | 0 | 227 | 3.0 | 6.0 | 0.00 | 0.00 | 0.00 | 996.7 | |
| 20260504214603 | 0 | 315 | 2.0 | 6.0 | 0.00 | 0.00 | 0.00 | 996.4 | |
| 20260504214059 | 0 | 55 | 0.0 | 5.0 | 0.00 | 0.00 | 0.00 | 996.5 | |
| 20260504213556 | 0 | 273 | 3.0 | 9.0 | 0.00 | 0.00 | 0.00 | 996.4 | |
| 20260504213053 | 0 | 126 | 9.0 | 9.0 | 0.00 | 0.00 | 0.00 | 996.6 | |
| 20260504212549 | 0 | 194 | 2.0 | 2.0 | 0.00 | 0.00 | 0.00 | 996.6 | |
| 20260504212046 | 0 | 160 | 3.0 | 5.0 | 0.00 | 0.00 | 0.00 | 996.7 |